OPS 4682 DEB, 18534

Orbit data source: Space-Track

OPS 4682 DEB, 18534 is space debris in LEO originally from a launch on Sat, 03 Apr 1965 UTC launched from the Air Force Western Test Range (AFWTR). Debris objects in space refer to the collection of defunct objects orbiting the Earth. Examples of debris include non-operational satellites, rocket bodies, and fragments generated from explosions, collisions, or faulty payload assembly.

Loading next visibility...
Identifier
18534, 1965-027AE
Orbit
LEO
Last TLE update
9 hours ago
Origin
Manufacturer
Unknown
Mission
Spacecraft
Bus & Motor
Unknown
Mass
Unknown
Launch date (UTC)
1965-04-03 (60 years ago)
Launch vehicle
Unknown
Launch site
Air Force Western Test Range (AFWTR)
Object type
Payload
Rocket body
Debris
Shape & HBR
Unknown
Radar Cross Section
Small (<0.1 m²)

Expand to show TLE details & history

TLE from 9 hours ago
0 OPS 4682 DEB
1 18534U 65027AE  25169.87212742  .00000518  00000-0  17944-2 0  9998
2 18534  90.2613  15.0364 0030061 352.4088  24.9541 12.96007922793937
Epoch: 2025-06-18T20:55Z
TLE epoch observation values (Epoch: 2025-06-18T20:55:51.809Z)
Latitude
17.49653°
Longitude
153.64064°
Altitude
1,259.214 km
Speed
7.237 km/s
True Right ascension
00h 59m 49s
True Declination
17° 24' 17"
Sunlit
Object was in daylight at epoch
Visualization orbit readout
Latitude
48.63723°
Longitude
153.43671°
Altitude
1,272.913 km
Speed
7.23 km/s
Apparent Right ascension
03h 03m 01s
Apparent Declination
10° 59' 34"
Sunlit
Object is in daylight
Visualization observer readout
Local Sidereal Time
17:11:44
Azimuth
37.576° NE
Elevation
-30.992°
Doppler factor
1
Orbital elements
Apogee altitude
1,297.907 km
Perigee altitude
1,251.895 km
Semi-major axis
7,653.038 km
Eccentricity
0.00301
Inclination
90.2613°
RAAN
15.0364°
Arg. of periapsis
352.4088°
True anomaly
Unknown
Mean anomaly
24.9541°
Eccentric anomaly
Unknown
Mean motion
3.24185 °/min
Orbital period
111.05 mins
BSTAR
0.0017944
Loading maneuver chart data...
Loading SW <> Apogee altitude chart data...
Loading historical data...
Loading historical data...
Loading historical data...
Loading historical data...
Loading historical data...
Loading historical data...
Loading historical data...

OPS 4682 DEB Visibility forecast

Observer location: undefined°, undefined°

Span
Click to sort rows by Start time (UTC) header in descending order
Start Az.
Max El. time (UTC)
Max El. Az.
Max El.
End time (UTC)
End Az.
14 mins2025-06-19 13:36:16.179Z160.862° S2025-06-19 13:43:16.179Z89.468° E41.764°2025-06-19 13:50:16.179Z4.843° NNE
10 mins2025-06-19 15:30:16.179Z237.711° WSW2025-06-19 15:35:16.179Z286.026° WNW21.51°2025-06-19 15:40:16.179Z329.458° NNW
13 mins2025-06-20 01:15:16.179Z18.926° NNE2025-06-20 01:21:16.179Z85.572° E35.536°2025-06-20 01:28:16.179Z156.734° SSE
12 mins2025-06-20 03:06:16.179Z340.379° N2025-06-20 03:12:16.179Z278.331° WNW29.317°2025-06-20 03:18:16.179Z224.51° SW
|